Regional Weather Roundup
Issued by NWS

Home | Current Version | Previous Version | Text Only | Print | Product List | Glossary Off
Versions: 1 2 3 4 5 6 7 8 9 10 11 12 13 14 15 16 17 18 19 20 21 22 23 24 25 26 27 28 29 30 31 32 33 34 35 36 37 38 39 40 41 42 43 44 45 46 47 48 49 50

000
ASUS43 KBIS 070110
RWRND

NORTH DAKOTA REGIONAL WEATHER ROUNDUP
NATIONAL WEATHER SERVICE BISMARCK ND
700 PM CST SAT FEB 06 2016

NOTE: "FAIR" INDICATES FEW OR NO CLOUDS BELOW 12,000 FEET WITH NO
SIGNIFICANT WEATHER AND/OR OBSTRUCTIONS TO VISIBILITY.


NDZ001>003-009>011-017-070200-
NORTHWEST NORTH DAKOTA

CITY           SKY/WX    TMP DP  RH WIND       PRES   REMARKS
WILLISTON      CLOUDY    41  31  67 W17G24    29.73R
MINOT          LGT RAIN  44  31  60 W28G37    29.58R
MINOT AFB      DRIZZLE   42  35  76 W26G33    29.55R
$$

NDZ018>021-031>035-040>046-070200-
SOUTHWEST NORTH DAKOTA

CITY           SKY/WX    TMP DP  RH WIND       PRES   REMARKS
BISMARCK       CLEAR     47  23  38 W12       29.70S
DICKINSON      MOCLDY    40  23  50 W26G36    29.75R
GARRISON         N/A     45  25  45 W29G39    29.62S
HETTINGER ARPT PTCLDY    42  18  37 W32G47    29.83R
$$

NDZ004>008-012>016-024-026-027-054-070200-
NORTHEAST NORTH DAKOTA

CITY           SKY/WX    TMP DP  RH WIND       PRES   REMARKS
GRAND FORKS    CLOUDY    40  32  73 SW13      29.52F
GRND FRKS AFB  CLOUDY    41  33  74 W13       29.51F
DEVILS LAKE    CLOUDY    39  32  76 SW15      29.54F
$$

NDZ022-023-025-028>030-036>039-047>053-070200-
SOUTHEAST NORTH DAKOTA

CITY           SKY/WX    TMP DP  RH WIND       PRES   REMARKS
FARGO          MOCLDY    39  32  76 SW12      29.64F
JAMESTOWN      PTCLDY    36  32  85 SW7       29.63F
$$




USA.gov is the U.S. government's official web portal to all federal, state and local government web resources and services.